Overview Statistics Trail Chart Weather Telemetry Raw packets
 

This is the latest recevied weather packets stored in our database for station/object EA7OC-10. If no packets are shown the sender has not sent any weather packets the latest 10 day(s).

<< 7 8 9 10 11 12 13 >>
Time Temp. Humidity Pressure Rain* Wind** Luminosity Snow
1788424683 38.33° C 24% 1021.5 hPa - - - -
1788423783 37.78° C 24% 1021.4 hPa - - - -
1788422883 36.67° C 24% 1021.3 hPa - - - -
1788421983 36.11° C 24% 1021.3 hPa - - - -
1788421083 35° C 25% 1021.2 hPa - - - -
1788420183 33.33° C 25% 1021.4 hPa - - - -
1788419282 31.67° C 25% 1021.3 hPa - - - -
1788418382 29.44° C 25% 1021.2 hPa - - - -
1788417482 27.22° C 25% 1021.1 hPa - - - -
1788416582 25° C 24% 1021 hPa - - - -
1788415682 24.44° C 24% 1020.6 hPa - - - -
1788414782 23.89° C 24% 1020.3 hPa - - - -
1788413882 24.44° C 24% 1020.3 hPa - - - -
1788412982 24.44° C 24% 1020.2 hPa - - - -
1788412082 24.44° C 23% 1020 hPa - - - -
1788411181 25° C 23% 1019.9 hPa - - - -
1788410281 25° C 24% 1019.8 hPa - - - -
1788409381 25° C 24% 1019.6 hPa - - - -
1788408481 25.56° C 24% 1019.6 hPa - - - -
1788407581 25.56° C 24% 1019.6 hPa - - - -
1788406681 25.56° C 23% 1019.6 hPa - - - -
1788405781 25° C 23% 1019.5 hPa - - - -
1788404881 25.56° C 23% 1019.5 hPa - - - -
1788403980 26.11° C 23% 1019.5 hPa - - - -
1788403080 26.11° C 23% 1019.3 hPa - - - -

* Rain since midnight (hover to see other rain measurements)
** Current wind speed in m/s (hover to see current wind gust speed)